Weather History for Whiting Fld NAS, FL

Change the Weather History Date:

Friday, April 12, 2013

  Actual Average Record
Temperature  
Mean Temperature 64 °F -  
Max Temperature 75 °F 74 °F 82 °F (1999)
Min Temperature 51 °F 54 °F 42 °F (1998)
Degree Days  
Heating Degree Days 1    
Growing Degree Days 14 (Base 50)    
Moisture  
Dew Point 49 °F    
Average Humidity 67    
Maximum Humidity 100    
Minimum Humidity 31    
Precipitation  
Precipitation 0.00 in - - ()
Sea Level Pressure  
Sea Level Pressure 29.85 in    
Wind  
Wind Speed 10 mph (NNW)    
Max Wind Speed 15 mph    
Max Gust Speed 22 mph    
Visibility 10 miles    
Events      
Averages and records for this station are not official NWS values.
T = Trace of Precipitation, MM = Missing Value Source: NWS Daily Summary

Daily Weather History Graph

Daily Weather History Graph

Search for Another Location

Airport:

Trip Planner

Search our weather history database for the weather conditions in past years. The results will help you decide how hot, cold, wet, or windy it might be!

Date:

Astronomy

Apr. 12, 2013 Rise Set
Actual Time 6:23 AM CDT 7:14 PM CDT
Civil Twilight 5:59 AM CDT 7:38 PM CDT
Nautical Twilight 5:30 AM CDT 8:08 PM CDT
Astronomical Twilight 5:00 AM CDT 8:37 PM CDT
Moon 7:41 AM CDT (4/12) 9:34 PM CDT (4/12)
Length of Visible Light 13h 39m
Length of Day
12h 50m
Waxing Crescent, 5% of the Moon is Illuminated
Apr 12
Waxing Crescent
Apr 18
First Quarter
Apr 25
Full
May 2
Last Quarter
May 9
New

Hourly Weather History & Observations

Time (CDT) Temp. Dew Point Humidity Pressure Visibility Wind Dir Wind Speed Gust Speed Precip Events Conditions
12:56 AM 62.1 °F 60.1 °F 93% 29.74 in 10.0 mi NW 12.7 mph - N/A   Overcast
1:34 AM 60.8 °F 60.8 °F 100% 29.77 in 10.0 mi NW 11.5 mph - N/A   Overcast
1:56 AM 61.0 °F 57.9 °F 90% 29.73 in 10.0 mi NW 12.7 mph 20.7 mph N/A   Overcast
2:12 AM 60.8 °F 57.2 °F 88% 29.77 in 10.0 mi NW 12.7 mph - N/A   Overcast
2:56 AM 60.1 °F 57.0 °F 90% 29.73 in 10.0 mi NW 12.7 mph - N/A   Overcast
3:56 AM 60.1 °F 55.9 °F 86% 29.75 in 10.0 mi NW 9.2 mph - N/A   Overcast
4:56 AM 59.0 °F 54.0 °F 83% 29.77 in 10.0 mi NW 10.4 mph - N/A   Overcast
5:56 AM 57.9 °F 53.1 °F 84% 29.79 in 10.0 mi NW 11.5 mph 18.4 mph N/A   Overcast
6:56 AM 57.0 °F 51.1 °F 81% 29.83 in 10.0 mi NNW 6.9 mph - N/A   Overcast
7:56 AM 55.0 °F 46.9 °F 74% 29.86 in 10.0 mi NNW 13.8 mph 21.9 mph N/A   Overcast
8:27 AM 55.4 °F 48.2 °F 77% 29.90 in 10.0 mi NNW 10.4 mph 18.4 mph N/A   Mostly Cloudy
8:56 AM 57.9 °F 48.9 °F 72% 29.87 in 10.0 mi North 9.2 mph - N/A   Mostly Cloudy
9:18 AM 59.0 °F 48.2 °F 67% 29.91 in 10.0 mi North 10.4 mph 16.1 mph N/A   Mostly Cloudy
9:56 AM 61.0 °F 48.0 °F 62% 29.88 in 10.0 mi NNW 10.4 mph - N/A   Scattered Clouds
10:56 AM 64.0 °F 45.0 °F 50% 29.89 in 10.0 mi North 9.2 mph - N/A   Partly Cloudy
11:56 AM 66.9 °F 43.0 °F 42% 29.89 in 10.0 mi North 9.2 mph 17.3 mph N/A   Partly Cloudy
12:56 PM 70.0 °F 43.0 °F 38% 29.88 in 10.0 mi NNW 15.0 mph 21.9 mph N/A   Scattered Clouds
1:56 PM 72.0 °F 43.0 °F 35% 29.88 in 10.0 mi NNW 10.4 mph 17.3 mph N/A   Scattered Clouds
2:56 PM 73.9 °F 44.1 °F 34% 29.86 in 10.0 mi NNW 10.4 mph 16.1 mph N/A   Scattered Clouds
3:56 PM 75.0 °F 42.1 °F 31% 29.86 in 10.0 mi North 11.5 mph - N/A   Scattered Clouds
4:56 PM 73.0 °F 42.1 °F 33% 29.85 in 10.0 mi NW 8.1 mph - N/A   Scattered Clouds
5:56 PM 73.0 °F 43.0 °F 34% 29.86 in 10.0 mi NNW 6.9 mph - N/A   Scattered Clouds
6:56 PM 66.9 °F 45.0 °F 45% 29.87 in 10.0 mi NW 5.8 mph - N/A   Scattered Clouds
7:56 PM 61.0 °F 48.0 °F 62% 29.88 in 10.0 mi Calm Calm - N/A   Scattered Clouds
8:56 PM 57.0 °F 48.0 °F 72% 29.90 in 10.0 mi Calm Calm - N/A   Scattered Clouds
9:56 PM 55.0 °F 48.0 °F 77% 29.93 in 10.0 mi Calm Calm - N/A   Scattered Clouds
10:56 PM 53.1 °F 48.0 °F 83% 29.94 in 10.0 mi Calm Calm - N/A   Scattered Clouds
11:56 PM 51.1 °F 46.9 °F 86% 29.95 in 10.0 mi Calm Calm - N/A   Clear